Weather History for KIPT - June, 2014

Change the Weather History Date:

Friday, June 13, 2014

  Actual Average Record
Temperature  
Mean Temperature 75 °F 68 °F  
Max Temperature 83 °F 79 °F 98 °F (1956)
Min Temperature 67 °F 57 °F 42 °F (1979)
Degree Days  
Heating Degree Days 0 1  
Month to date heating degree days 3 27  
Since 1 June heating degree days 3 27  
Since 1 July heating degree days 6462 5985  
Cooling Degree Days 10 5  
Month to date cooling degree days 55 46  
Year to date cooling degree days 107 89  
Since 1 June cooling degree days 55 46  
Growing Degree Days 25 (Base 50)    
Moisture  
Dew Point 65 °F    
Average Humidity 72    
Maximum Humidity 93    
Minimum Humidity 51    
Precipitation  
Precipitation 0.43 in 0.13 in 1.39 in (1967)
Month to date precipitation 2.51 1.67  
Year to date precipitation 17.26 16.58  
Sea Level Pressure  
Sea Level Pressure 29.78 in    
Wind  
Wind Speed 6 mph (West)    
Max Wind Speed 22 mph    
Max Gust Speed 29 mph    
Visibility 9 miles    
Events Rain , Thunderstorm    
T = Trace of Precipitation, MM = Missing Value Source: NWS Daily Summary

Daily Weather History Graph

Daily Weather History Graph

Search for Another Location

Airport or City:

Trip Planner

Search our weather history database for the weather conditions in past years. The results will help you decide how hot, cold, wet, or windy it might be!

Date:

Astronomy

Jun. 13, 2014 Rise Set
Actual Time 5:34 AM EDT 8:41 PM EDT
Civil Twilight 5:00 AM EDT 9:15 PM EDT
Nautical Twilight 4:17 AM EDT 9:58 PM EDT
Astronomical Twilight 3:26 AM EDT 10:49 PM EDT
Moon 9:09 PM EDT (6/13) 6:12 AM EDT (6/13)
Length of Visible Light 16h 14m
Length of Day
15h 07m
Full, 100% of the Moon is Illuminated
Jun 13
Full
Jun 19
Last Quarter
Jun 27
New
Jul 5
First Quarter
Jul 12
Full

Hourly Weather History & Observations

Time (EDT) Temp. Heat Index Dew Point Humidity Pressure Visibility Wind Dir Wind Speed Gust Speed Precip Events Conditions
12:35 AM 69.1 °F - 64.9 °F 87% 29.83 in 10.0 mi ENE 9.2 mph - 0.00 in Rain Light Rain
12:54 AM 68.0 °F - 64.9 °F 90% 29.82 in 10.0 mi East 6.9 mph - 0.00 in   Overcast
1:13 AM 69.1 °F - 64.9 °F 87% 29.82 in 10.0 mi ESE 9.2 mph - N/A   Overcast
1:49 AM 69.8 °F - 64.4 °F 83% 29.81 in 10.0 mi ESE 11.5 mph - 0.00 in Rain Light Rain
1:54 AM 69.1 °F - 64.9 °F 87% 29.81 in 10.0 mi ESE 10.4 mph - 0.00 in   Overcast
2:22 AM 69.1 °F - 64.9 °F 87% 29.80 in 10.0 mi East 10.4 mph - 0.00 in Rain Light Rain
2:54 AM 69.1 °F - 64.9 °F 87% 29.79 in 10.0 mi ESE 12.7 mph 18.4 mph 0.00 in Rain Light Rain
3:54 AM 69.1 °F - 66.0 °F 90% 29.78 in 2.5 mi Calm Calm - 0.15 in Rain Heavy Rain
3:57 AM 69.1 °F - 66.0 °F 90% 29.78 in 3.0 mi Calm Calm - 0.01 in Rain Heavy Rain
4:54 AM 68.0 °F - 66.0 °F 93% 29.78 in 3.0 mi East 4.6 mph - 0.10 in Rain Heavy Rain
5:01 AM 68.0 °F - 66.0 °F 93% 29.78 in 2.5 mi Calm Calm - 0.05 in Rain Heavy Rain
5:11 AM 68.0 °F - 66.0 °F 93% 29.78 in 5.0 mi Calm Calm - 0.05 in Rain Light Rain
5:54 AM 68.0 °F - 66.0 °F 93% 29.77 in 5.0 mi Calm Calm - 0.09 in Rain Rain
6:28 AM 68.0 °F - 66.0 °F 93% 29.77 in 4.0 mi ENE 6.9 mph - 0.08 in Rain Light Rain
6:44 AM 68.0 °F - 66.0 °F 93% 29.78 in 9.0 mi East 5.8 mph - 0.09 in Rain Light Rain
6:54 AM 69.1 °F - 66.0 °F 90% 29.78 in 10.0 mi NNE 4.6 mph - 0.09 in   Overcast
7:08 AM 69.1 °F - 66.0 °F 90% 29.79 in 10.0 mi NNE 3.5 mph - N/A   Overcast
7:54 AM 71.1 °F - 66.0 °F 84% 29.79 in 10.0 mi Calm Calm - N/A   Overcast
8:17 AM 71.1 °F - 66.0 °F 84% 29.80 in 10.0 mi Calm Calm - N/A   Overcast
8:54 AM 72.0 °F - 66.9 °F 84% 29.78 in 10.0 mi Calm Calm - N/A   Mostly Cloudy
9:08 AM 72.0 °F - 66.0 °F 81% 29.79 in 10.0 mi Calm Calm - N/A   Mostly Cloudy
9:13 AM 73.0 °F - 66.9 °F 81% 29.79 in 10.0 mi Calm Calm - N/A   Mostly Cloudy
9:24 AM 73.0 °F - 66.9 °F 81% 29.79 in 10.0 mi Calm Calm - N/A   Mostly Cloudy
9:38 AM 73.0 °F - 68.0 °F 84% 29.79 in 10.0 mi Calm Calm - N/A   Overcast
9:54 AM 73.0 °F - 66.9 °F 81% 29.78 in 10.0 mi Calm Calm - N/A   Overcast
10:29 AM 73.0 °F - 66.9 °F 81% 29.78 in 10.0 mi SSW 3.5 mph - N/A   Mostly Cloudy
10:43 AM 75.0 °F - 66.9 °F 76% 29.78 in 10.0 mi SW 3.5 mph - N/A   Mostly Cloudy
10:54 AM 75.2 °F - 66.2 °F 73% 29.78 in 10.0 mi WSW 5.8 mph - N/A   Mostly Cloudy
11:54 AM 75.9 °F - 64.9 °F 69% 29.76 in 10.0 mi West 10.4 mph - N/A   Mostly Cloudy
12:09 PM 75.0 °F - 64.9 °F 71% 29.77 in 10.0 mi West 5.8 mph - N/A Thunderstorm Mostly Cloudy
12:27 PM 77.0 °F - 64.9 °F 66% 29.76 in 10.0 mi WSW 3.5 mph - N/A   Partly Cloudy
12:54 PM 80.6 °F 81.8 °F 62.6 °F 54% 29.76 in 10.0 mi WSW 10.4 mph - N/A   Partly Cloudy
1:54 PM 80.1 °F 81.5 °F 63.0 °F 56% 29.73 in 10.0 mi West 8.1 mph - N/A   Mostly Cloudy
2:54 PM 80.1 °F 81.7 °F 64.0 °F 58% 29.71 in 10.0 mi West 8.1 mph - N/A   Mostly Cloudy
3:54 PM 82.9 °F 84.4 °F 64.0 °F 53% 29.70 in 10.0 mi West 9.2 mph - N/A   Mostly Cloudy
4:54 PM 82.4 °F 83.4 °F 62.6 °F 51% 29.69 in 10.0 mi WSW 5.8 mph - N/A   Clear
6:40 PM 71.1 °F - 61.0 °F 70% 29.75 in 10.0 mi NNW 9.2 mph - 0.00 in Rain Light Rain
6:54 PM 69.8 °F - 60.8 °F 73% 29.75 in 10.0 mi North 5.8 mph - N/A   Mostly Cloudy
7:54 PM 71.1 °F - 60.1 °F 68% 29.76 in 10.0 mi West 9.2 mph - N/A   Partly Cloudy
8:54 PM 69.1 °F - 61.0 °F 75% 29.80 in 10.0 mi West 9.2 mph - N/A   Mostly Cloudy
9:54 PM 69.1 °F - 60.1 °F 73% 29.81 in 10.0 mi West 8.1 mph - N/A   Overcast
10:54 PM 68.0 °F - 59.0 °F 73% 29.84 in 10.0 mi West 6.9 mph - N/A   Mostly Cloudy
11:54 PM 66.9 °F - 59.0 °F 76% 29.86 in 10.0 mi WNW 6.9 mph - N/A   Overcast